Location: ?????
(31.8092°N, 35.2590°E)
Time: 03:59:31
(UTC+00:00)

Cosmos 2360 Rocket - Pass Details

Date: 25 October 2021
Orbit: 832 x 846 km, 71.0° (Epoch: 07 December)

Event Time Altitude Azimuth Distance (km) Brightness Sun altitude
Rises 16:12:21 0° 210° (SSW) 3,369 5.8 -16.9°
Reaches altitude 10° 16:14:49 10° 214° (SW) 2,440 5.1 -17.4°
Maximum altitude 16:20:18 56° 292° (WNW) 988 2.8 -18.5°
Drops below altitude 10° 16:25:51 10° 11° (N) 2,461 4.5 -19.7°
Sets 16:28:22 0° 15° (NNE) 3,401 5.2 -20.3°
